Other Public Products
Issued by NWS Grand Forks, ND

Home | Current Version | Previous Version | Graphics & Text | Print | Product List | Glossary On
Versions: 1 2 3 4 5 6 7 8 9 10 11 12 13 14 15 16 17 18 19 20 21 22 23 24 25 26 27 28 29 30 31 32 33 34 35 36 37 38 39 40 41 42 43 44 45 46 47 48 49 50
000
FPUS83 KFGF 260631
OPUFGF
PRAIRIE TO PINES WEATHER ROUNDUP
NATIONAL WEATHER SERVICE EASTERN NORTH DAKOTA/GRAND FORKS ND
100 AM CDT MON SEP 26 2016

 **SATELLITE DATA USED TO AUGMENT SKY COVER AT AUTOMATED STATIONS**
 *****  WEATHER ACROSS EASTERN NORTH DAKOTA  *****

CITY           SKY/WX    TMP DP  RH WIND       PRES   REMARKS
GRAND FORKS    PTCLDY    52  39  61 NW15      29.93F
6HR MIN TEMP:  52; 6HR MAX TEMP:  57; 6HR PCP: TRACE;

GRAND FORKS AF CLEAR     53  37  55 NW15      29.94F
GRAND CITY NWS NOT AVBL
BUXTON           N/A     43  47 100 W10         N/A
DEVILS LAKE    CLEAR     50  37  61 W17       30.03S
6HR MIN TEMP:  50; 6HR MAX TEMP:  59;

FARGO          PTCLDY    54  37  52 W16G25    29.97S
6HR MIN TEMP:  54; 6HR MAX TEMP:  59; 6HR PCP: TRACE;

WAHPETON ARPT  CLEAR     50  36  57 W15       30.00F
$$

 *****  WEATHER ACROSS CENTRAL AND WESTERN NORTH DAKOTA  *****

CITY           SKY/WX    TMP DP  RH WIND       PRES   REMARKS
JAMESTOWN      CLEAR     48  38  68 W10       30.06F
6HR MIN TEMP:  48; 6HR MAX TEMP:  60;

BISMARCK       CLEAR     46  35  65 W8        30.17F
6HR MIN TEMP:  45; 6HR MAX TEMP:  62;

MINOT          CLEAR     50  34  54 W14       30.12S
6HR MIN TEMP:  50; 6HR MAX TEMP:  60;

MINOT AFB      CLEAR     47  35  63 NW14      30.11S
6HR MIN TEMP:  47; 6HR MAX TEMP:  59;

GARRISON         N/A     45  35  68 W8        30.15R
6HR MIN TEMP:  45; 6HR MAX TEMP:  59;

WILLISTON      CLEAR     42  33  70 CALM      30.20S
6HR MIN TEMP:  41; 6HR MAX TEMP:  62;

DICKINSON      CLEAR     38  33  82 W7        30.20F
6HR MIN TEMP:  38; 6HR MAX TEMP:  58;

HETTINGER      CLEAR     39  34  82 W3        30.25F
6HR MIN TEMP:  39; 6HR MAX TEMP:  60;

$$

 *****  OTHER OBSERVATIONS NORTHEAST NORTH DAKOTA  *****

CITY           SKY/WX    TMP DP  RH WIND       PRES   REMARKS
WALHALLA       FAIR      50  48  93 W12G20    29.93S
LANGDON        MOCLDY    48  37  66 NW17G24   29.97S
CAVALIER       FAIR      50  39  66 NW14G20   29.92S
GRAFTON        FAIR      52  41  66 NW20      29.94S
CANDO          FAIR      45  37  76 W12       30.04F
FORT TOTTEN      N/A     51  39  63 NW8       29.95S
ROLLA          FAIR      50  32  50 NW18G28   30.02F
RUGBY          FAIR      45  36  70 W10       30.06S
 ***** THE ABOVE OBSERVATIONS ARE NON NWS ARE NOT QUALITY
        CONTROLLED AND MAY MIS-REPORT RAIN FOR SNOW...
$$

 *****  OTHER OBSERVATIONS SOUTHEAST NORTH DAKOTA *****

CITY           SKY/WX    TMP DP  RH WIND       PRES   REMARKS
COOPERSTOWN    FAIR      48  37  66 W15       30.02S
VALLEY CITY    FAIR      48  36  61 NW15G22   30.05F
OAKES          NOT AVBL
GWINNER        FAIR      50  39  66 W14       30.06F
SHEYENNE NWR     N/A     49  36  61 W8        29.95
BUFFALO          N/A     50  30  46 W10         N/A
WYNDMERE         N/A     52  39  62 W10         N/A
 ***** THE ABOVE OBSERVATIONS ARE NON NWS ARE NOT QUALITY
       CONTROLLED AND MAY MIS-REPORT RAIN FOR SNOW...
$$

  *****  WEATHER ACROSS NORTHERN MINNESOTA  *****

CITY           SKY/WX    TMP DP  RH WIND       PRES   REMARKS
FLAG ISLAND    LGT RAIN  52  48  87 NW25G35   29.70F
WARROAD        DRIZZLE   50  46  87 W13G21    29.78F
ROSEAU         DRIZZLE   50  45  81 W14       29.80F
HALLOCK        PTCLDY    52  43  71 NW14      29.88S
THF RVR FALLS  CLOUDY    51  43  74 W15       29.89S
6HR MIN TEMP:  50; 6HR MAX TEMP:  51; 6HR PCP:  0.16;

HALSTAD          N/A     52  39  62 NW13        N/A
FOSSTON        CLOUDY    48  45  87 W14       29.90S
BAUDETTE       RAIN      50  48  93 NW17G35   29.73S
6HR MIN TEMP:  50; 6HR MAX TEMP:  53; 6HR PCP:  0.50;

WASKISH        DRIZZLE   50  48  93 W21G30    29.78S
CROOKSTON      PTCLDY    50  43  76 NW16      29.92S
$$
  *****  WEATHER ACROSS CENTRAL AND WEST MINNESOTA  *****

CITY           SKY/WX    TMP DP  RH WIND       PRES   REMARKS
BEMIDJI        LGT RAIN  48  45  89 W18G26    29.85F
PARK RAPIDS    CLOUDY    50  45  83 W13       29.90F
6HR MIN TEMP:  49; 6HR MAX TEMP:  52; 6HR PCP:  0.11;

WADENA         CLOUDY    48  45  87 W5        29.94F
DETROIT LAKES  CLOUDY    52  43  71 W13       29.94F
MOORHEAD       PTCLDY    54  37  54 W20       29.98S
FERGUS FALLS   CLOUDY    48  39  71 W14       30.00S
ELBOW LAKE     FAIR      50  40  66 NW14      30.00S
MORRIS MN      PTCLDY    50  39  66 W13       30.00F
STAPLES        CLOUDY    48  46  93 W9        29.92F
WHEATON        CLEAR     54  41  62 W14       30.04F
$$
  *****  WEATHER ELSEWHERE ACROSS MINNESOTA  *****

CITY           SKY/WX    TMP DP  RH WIND       PRES   REMARKS
DULUTH         DRIZZLE   50  49  96 W20       29.75F
6HR MIN TEMP:  50; 6HR MAX TEMP:  57; 6HR PCP:  0.01;

INTRNTL FALLS  CLOUDY    51  49  92 W16G24    29.66F
6HR MIN TEMP:  51; 6HR MAX TEMP:  55; 6HR PCP:  0.01;

ELY            DRIZZLE   50  48  93 W9        29.65F
CLOQUET        RAIN      50  46  87 W13G23    29.77F
BRAINERD       LGT RAIN  50  47  89 W15G23    29.90F
6HR MIN TEMP:  49; 6HR MAX TEMP:  55; 6HR PCP:  0.03;

HIBBING        LGT RAIN  49  48  97 W9        29.72F FOG
6HR MIN TEMP:  49; 6HR MAX TEMP:  54; 6HR PCP:  0.03;

ALEXANDRIA     MOCLDY    50  46  86 W9        29.99F
6HR MIN TEMP:  50; 6HR MAX TEMP:  54; 6HR PCP: TRACE;

SAINT CLOUD    CLOUDY    52  47  83 W10       29.96S
6HR MIN TEMP:  52; 6HR MAX TEMP:  58; 6HR PCP: TRACE;

MINNEAPOLIS    MOCLDY    56  44  64 W10       29.97F
6HR MIN TEMP:  55; 6HR MAX TEMP:  61;

$$

  *****  WEATHER ACROSS SOUTH DAKOTA  *****

CITY           SKY/WX    TMP DP  RH WIND       PRES   REMARKS
SIOUX FALLS    CLEAR     48  38  68 W6        30.16S
6HR MIN TEMP:  48; 6HR MAX TEMP:  62;

BROOKINGS      CLEAR     49  36  61 NW12      30.13S
WATERTOWN      CLEAR     51  37  58 W10       30.10F
6HR MIN TEMP:  51; 6HR MAX TEMP:  60;

HURON          CLEAR     47  33  58 W9        30.17S
6HR MIN TEMP:  45; 6HR MAX TEMP:  63;

SISSETON         N/A     53  36  52 NW15      30.04F
ABERDEEN       CLEAR     43  34  70 W8        30.14S
6HR MIN TEMP:  42; 6HR MAX TEMP:  62;

MITCHELL       CLEAR     48  33  56 W8        30.20S
PIERRE         CLEAR     51  35  54 W10       30.22S
6HR MIN TEMP:  48; 6HR MAX TEMP:  64;

MOBRIDGE       CLEAR     46  35  65 NW7       30.17F
RAPID CITY     CLEAR     43  34  70 W7        30.32S
6HR MIN TEMP:  43; 6HR MAX TEMP:  62;

$$

  *****  SOME WEATHER IN NEARBY STATES *****

CITY           SKY/WX    TMP DP  RH WIND       PRES   REMARKS
GLASGOW MT     CLEAR     48  38  68 W5        30.22S
6HR MIN TEMP:  46; 6HR MAX TEMP:  65;

GREAT FALLS MT CLEAR     47  40  76 SW8       30.34R
6HR MIN TEMP:  47; 6HR MAX TEMP:  68;

CHEYENNE WY    CLEAR     42  34  73 SW8       30.46F
6HR MIN TEMP:  41; 6HR MAX TEMP:  62;

SCOTTSBLUFF NE CLEAR     43  37  79 CALM      30.40S
6HR MIN TEMP:  42; 6HR MAX TEMP:  65;

OMAHA NE       CLEAR     53  39  59 NW7       30.22R
6HR MIN TEMP:  52; 6HR MAX TEMP:  66;

DES MOINES IA  CLEAR     57  45  64 NW10      30.14R
6HR MIN TEMP:  56; 6HR MAX TEMP:  65;

DAVENPORT IA   CLOUDY    59  51  75 W6        30.06F
6HR MIN TEMP:  59; 6HR MAX TEMP:  68; 6HR PCP: TRACE;

CHICAGO IL     LGT RAIN  64  54  69 W15G24    29.96R
6HR MIN TEMP:  64; 6HR MAX TEMP:  76; 6HR PCP: TRACE;

EAU CLAIRE WI  CLEAR     53  43  68 W13       29.91F
6HR MIN TEMP:  53; 6HR MAX TEMP:  61; 6HR PCP: TRACE;

LA CROSSE WI   CLEAR     59  50  72 W10       29.97F
6HR MIN TEMP:  58; 6HR MAX TEMP:  67;

$$

  *****  SOME NATIONAL WEATHER *****

CITY           SKY/WX    TMP DP  RH WIND       PRES   REMARKS
LA GUARDIA NY  PTCLDY    62  40  44 CALM      30.20R
6HR MIN TEMP:  61; 6HR MAX TEMP:  68;                              C1F1C2F2C3F3C4F4C5F5C6F6C7F7C8F8C9F9CaFaCbFbCcFcCdFdCe!



USA.gov is the U.S. government's official web portal to all federal, state and local government web resources and services.